User: anonymous
Location: Mason Neck State Park
(38.6428°N, 77.1981°W)
Time: 00:17:35
(UTC-04:00)
Language:

Cosmos 1400 Rocket - Orbit

View from above orbital plane
View from above orbital plane
View from above satellite
View from above satellite

Ground track
Ground track

The orbit data is extracted from the following two-line orbital elements,

1 13403U 82079B   14265.45885314  .00001844  00000-0  13088-3 0  6732
2 13403 081.1718 331.6969 0035238 325.9179 033.9779 15.03786839746435
Epoch (UTC): 22 September 2014 11:00:44
Eccentricity: 0.0035238
inclination: 81.1718°
perigee height: 531 km
apogee height: 579 km
right ascension of ascending node: 331.6969°
argument of perigee: 325.9179°
revolutions per day: 15.03786839
mean anomaly at epoch: 33.9779°
orbit number at epoch: 74643

The dashed part of the orbit path shows where the satellite is in the earth's shadow,  

DLR